Powrót do katalogu

FENGYUN 1C DEB

AktywnySSO
NORAD 30728·DEBRIS·🇨🇳 China

Wystrzelony May 10, 1999 z Taiyuan Satellite Launch Center

Loading…

Następne Przeloty (najbliższe 24 godziny)

TLE

ŚwieżeSource: Space-Track

Epoka: Sep 14, 2026, 23:14 UTC

1 30728U 99025ASN 26257.96821677  .00000078  00000-0  50427-4 0  9990
2 30728  98.5321 261.3343 0098285 357.8456   2.2287 14.23565942 16168

Śledź FENGYUN 1C DEB w czasie rzeczywistym z AllMySat

Download on the App Store